Location: Newark
(34.0131°N, 4.3314°W)
Time: 22:12:27
(UTC+00:00)

Vanguard 2 - Visible Passes

Search period start: 16 October 2019 00:00
Search period end: 26 October 2019 00:00
Orbit: 554 x 2937 km, 32.9° (Epoch: 15 October)

Date Brightness Start Highest point End Pass type
(mag) Time Alt. Az. Time Alt. Az. Time Alt. Az.
16 Oct 11.3 02:21:15 17° SSE 02:21:15 17° SSE 02:23:51 10° SSE visible
16 Oct 11.2 04:22:42 13° SW 04:22:42 13° SW 04:25:52 10° SSW visible
16 Oct 9.6 19:39:47 10° WSW 19:50:10 76° SSE 19:56:39 42° E visible
16 Oct 10.2 21:48:52 10° W 21:58:02 58° W 21:58:02 58° W visible
16 Oct 11.7 23:59:23 10° W 23:59:25 10° W 23:59:25 10° W visible
17 Oct 11.4 02:38:28 16° SSE 02:38:28 16° SSE 02:40:40 10° SSE visible
17 Oct 9.6 17:50:18 10° SW 17:58:05 48° SSE 18:10:45 10° E visible
17 Oct 9.6 19:57:42 10° WSW 20:08:18 82° S 20:13:13 52° E visible
17 Oct 10.4 22:06:59 10° W 22:14:37 46° W 22:14:37 46° W visible
18 Oct11.900:54:10SE00:54:10SE00:16:00WNWvisible
18 Oct 11.5 02:55:35 13° S 02:55:35 13° S 02:56:59 10° S visible
18 Oct 9.4 18:07:49 10° SW 18:15:50 59° SSE 18:28:24 12° E visible
18 Oct 9.6 20:15:41 10° W 20:26:32 85° S 20:29:47 63° E visible
18 Oct 10.7 22:25:04 10° W 22:31:10 37° W 22:31:10 37° W visible
19 Oct12.001:11:13SE01:11:13SE00:32:33WNWvisible
19 Oct 9.3 18:25:30 10° WSW 18:33:44 69° SSE 18:44:57 17° E visible
19 Oct 9.6 20:33:42 10° W 20:44:48 86° S 20:46:20 76° ESE visible
19 Oct 11.0 22:43:12 10° W 22:47:43 28° W 22:47:43 28° W visible
20 Oct 9.3 18:43:20 10° WSW 18:51:44 77° SSE 19:01:30 23° E visible
20 Oct 9.6 20:51:44 10° W 21:02:53 84° SSW 21:02:53 84° SSW visible
20 Oct 11.2 23:01:21 10° W 23:04:16 21° W 23:04:16 21° W visible
21 Oct 9.3 19:01:14 10° WSW 19:09:51 83° S 19:18:03 29° E visible
21 Oct 9.8 21:09:47 10° W 21:19:26 71° WSW 21:19:26 71° WSW visible
21 Oct 11.5 23:19:34 10° W 23:20:49 14° W 23:20:49 14° W visible
22 Oct 9.3 19:19:11 10° W 19:28:01 85° S 19:34:38 37° E visible
22 Oct 10.0 21:27:50 10° W 21:36:01 57° WSW 21:36:01 57° WSW visible
23 Oct 9.3 19:37:10 10° W 19:46:12 85° S 19:51:14 46° E visible
23 Oct 10.3 21:45:54 10° W 21:52:37 44° W 21:52:37 44° W visible
24 Oct 8.9 17:47:14 10° WSW 17:54:00 78° SSE 18:05:45 10° E visible
24 Oct 9.3 19:55:09 10° W 20:04:22 81° S 20:07:51 57° ESE visible
24 Oct 10.6 22:04:02 10° W 22:09:15 33° W 22:09:15 33° W visible
25 Oct 8.9 18:05:08 10° W 18:12:04 83° S 18:23:09 13° E visible
25 Oct 9.4 20:13:09 10° W 20:22:32 75° SSW 20:24:32 66° SE visible
25 Oct 10.9 22:22:15 10° W 22:25:56 24° W 22:25:56 24° W visible
